Location: Arnolds Mill
(42.3415°N, 73.5951°W)
Time: 10:37:01
(UTC+00:00)

BlueWalker 3 - Pass Details

Date: 22 June 2024
Orbit: 480 x 492 km, 53.2° (Epoch: 13 July)

Event Time Altitude Azimuth Distance (km) Brightness Sun altitude
Rises 01:10:24 0° 235° (SW) 2,534 5.7 -6.1°
Reaches altitude 10° 01:12:34 10° 237° (WSW) 1,655 4.8 -6.4°
Maximum altitude 01:16:18 76° 323° (NW) 500 2.1 -6.9°
Drops below altitude 10° 01:20:03 10° 50° (NE) 1,659 4.5 -7.5°
Sets 01:22:13 0° 52° (NE) 2,540 5.4 -7.8°
